This is the latest recevied weather packets stored in our database for station/object WD9EKA. If no packets are shown the sender has not sent any weather packets the latest 10 day(s).
| Time | Temp. | Humidity | Pressure | Rain* | Wind** | Luminosity | Snow |
|---|---|---|---|---|---|---|---|
| 1787509829 | 26.11° C | 57% | 1011.9 hPa | 0 mm | - | - | - |
| 1787509509 | 25.56° C | 61% | 1011.9 hPa | 0 mm | - | - | - |
| 1787509189 | 26.11° C | 58% | 1012 hPa | 0 mm | - | - | - |
| 1787508870 | 26.11° C | 59% | 1012 hPa | 0 mm | - | - | - |
| 1787508550 | 26.11° C | 60% | 1012.2 hPa | 0 mm | - | - | - |
| 1787508229 | 25.56° C | 56% | 1012 hPa | 0 mm | - | - | - |
| 1787507909 | 25.56° C | 57% | 1012.1 hPa | 0 mm | - | - | - |
| 1787507590 | 25.56° C | 57% | 1012.2 hPa | 0 mm | - | - | - |
| 1787507269 | 25.56° C | 59% | 1012.3 hPa | 0 mm | - | - | - |
| 1787506629 | 25.56° C | 60% | 1012.3 hPa | 0 mm | - | - | - |
| 1787506309 | 25.56° C | 58% | 1012.2 hPa | 0 mm | - | - | - |
| 1787505989 | 25.56° C | 60% | 1012.1 hPa | 0 mm | - | - | - |
| 1787505669 | 26.11° C | 58% | 1011.9 hPa | 0 mm | - | - | - |
| 1787505350 | 26.11° C | 54% | 1012.2 hPa | 0 mm | - | - | - |
| 1787505029 | 25.56° C | 56% | 1012.1 hPa | 0 mm | - | - | - |
| 1787504710 | 25.56° C | 56% | 1012.4 hPa | 0 mm | - | - | - |
| 1787504389 | 25.56° C | 58% | 1012.4 hPa | 0 mm | - | - | - |
| 1787504069 | 26.11° C | 61% | 1012.4 hPa | 0 mm | - | - | - |
| 1787503750 | 25.56° C | 59% | 1012.4 hPa | 0 mm | - | - | - |
| 1787503430 | 25° C | 59% | 1012.5 hPa | 0 mm | - | - | - |
| 1787502789 | 25.56° C | 58% | 1012.6 hPa | 0 mm | - | - | - |
| 1787502469 | 25.56° C | 64% | 1012.5 hPa | 0 mm | - | - | - |
| 1787501814 | 25° C | 66% | 1012.8 hPa | 0 mm | - | - | - |
| 1787501493 | 25° C | 61% | 1012.6 hPa | 0 mm | - | - | - |
| 1787501173 | 25° C | 60% | 1012.8 hPa | 0 mm | - | - | - |
* Rain latest hour (hover to see other rain measurements)
** Current wind speed in m/s (hover to see current wind gust speed)